This is the latest recevied weather packets stored in our database for station/object KB3UMW-13. If no packets are shown the sender has not sent any weather packets the latest 10 day(s).
| Time | Temp. | Humidity | Pressure | Rain* | Wind** | Luminosity | Snow |
|---|---|---|---|---|---|---|---|
| 1777819467 | 6.11° C | 63% | 1017.1 hPa | 0 mm | - | 786 W/m² | - |
| 1777819165 | 6.67° C | 62% | 1017 hPa | 0 mm | - | 903 W/m² | - |
| 1777818861 | 7.22° C | 61% | 1017.2 hPa | 0 mm | - | 833 W/m² | - |
| 1777818552 | 7.22° C | 66% | 1017 hPa | 0 mm | - | 802 W/m² | - |
| 1777818250 | 5.56° C | 62% | 1017.1 hPa | 0 mm | - | 749 W/m² | - |
| 1777817946 | 7.22° C | 64% | 1016.9 hPa | 0 mm | - | 748 W/m² | - |
| 1777817643 | 6.67° C | 67% | 1016.9 hPa | 0 mm | - | 670 W/m² | - |
| 1777817340 | 5° C | 68% | 1016.9 hPa | 0 mm | - | 239 W/m² | - |
| 1777817037 | 6.67° C | 62% | 1016.9 hPa | 0 mm | - | 223 W/m² | - |
| 1777816732 | 6.67° C | 65% | 1016.9 hPa | 0 mm | - | 263 W/m² | - |
| 1777816430 | 6.67° C | 65% | 1017 hPa | 0 mm | - | 148 W/m² | - |
| 1777816128 | 6.67° C | 65% | 1016.7 hPa | 0 mm | - | 574 W/m² | - |
| 1777815826 | 5.56° C | 66% | 1016.8 hPa | 0 mm | - | 576 W/m² | - |
| 1777815522 | 4.44° C | 71% | 1016.9 hPa | 0 mm | - | 392 W/m² | - |
| 1777815220 | 5.56° C | 69% | 1016.8 hPa | 0 mm | - | 151 W/m² | - |
| 1777814916 | 5° C | 72% | 1016.8 hPa | 0 mm | - | 527 W/m² | - |
| 1777814613 | 5° C | 72% | 1016.5 hPa | 0 mm | - | 465 W/m² | - |
| 1777814310 | 5° C | 75% | 1016.7 hPa | 0 mm | - | 133 W/m² | - |
| 1777814006 | 3.89° C | 75% | 1016.6 hPa | 0 mm | - | 355 W/m² | - |
| 1777813704 | 4.44° C | 74% | 1016.9 hPa | 0 mm | - | 301 W/m² | - |
| 1777813401 | 4.44° C | 79% | 1016.7 hPa | 0 mm | - | 242 W/m² | - |
| 1777813098 | 3.33° C | 82% | 1016.7 hPa | 0 mm | - | 214 W/m² | - |
| 1777812796 | 3.33° C | 82% | 1016.5 hPa | 0 mm | - | 110 W/m² | - |
| 1777812486 | 2.78° C | 78% | 1016.5 hPa | 0 mm | - | 142 W/m² | - |
| 1777812185 | 3.33° C | 81% | 1016.3 hPa | 0 mm | - | 162 W/m² | - |
* Rain latest hour (hover to see other rain measurements)
** Current wind speed in m/s (hover to see current wind gust speed)